Year,Month,Day,Hour,Minute,Value (Times are PST for temperature in C)
2019,04,25,00,00,6.30
2019,04,25,00,01,6.30
2019,04,25,00,02,6.30
2019,04,25,00,03,6.20
2019,04,25,00,04,6.20
2019,04,25,00,05,6.20
2019,04,25,00,06,6.10
2019,04,25,00,07,6.10
2019,04,25,00,08,6.10
2019,04,25,00,09,6.10
2019,04,25,00,10,6.10
2019,04,25,00,11,6.10
2019,04,25,00,12,6.10
2019,04,25,00,13,6.10
2019,04,25,00,14,6.10
2019,04,25,00,15,6.00
2019,04,25,00,16,6.00
2019,04,25,00,17,6.10
2019,04,25,00,18,6.00
2019,04,25,00,19,6.00
2019,04,25,00,20,6.00
2019,04,25,00,21,6.00
2019,04,25,00,22,5.90
2019,04,25,00,23,5.90
2019,04,25,00,24,5.90
2019,04,25,00,25,6.00
2019,04,25,00,26,6.00
2019,04,25,00,27,5.90
2019,04,25,00,28,6.00
2019,04,25,00,29,6.00
2019,04,25,00,30,5.90
2019,04,25,00,31,5.90
2019,04,25,00,32,5.90
2019,04,25,00,33,5.90
2019,04,25,00,34,5.80
2019,04,25,00,35,5.80
2019,04,25,00,36,5.80
2019,04,25,00,37,5.80
2019,04,25,00,38,5.80
2019,04,25,00,39,5.80
2019,04,25,00,40,5.80
2019,04,25,00,41,5.80
2019,04,25,00,42,5.80
2019,04,25,00,43,5.80
2019,04,25,00,44,5.80
2019,04,25,00,45,5.80
2019,04,25,00,46,5.80
2019,04,25,00,47,5.80
2019,04,25,00,48,5.90
2019,04,25,00,49,5.90
2019,04,25,00,50,5.90
2019,04,25,00,51,5.90
2019,04,25,00,52,5.90
2019,04,25,00,53,6.00
2019,04,25,00,54,6.00
2019,04,25,00,55,6.00
2019,04,25,00,56,6.00
2019,04,25,00,57,5.90
2019,04,25,00,58,5.90
2019,04,25,00,59,5.90
2019,04,25,01,00,5.90
2019,04,25,01,01,5.90
2019,04,25,01,02,5.90
2019,04,25,01,03,5.80
2019,04,25,01,04,5.80
2019,04,25,01,05,5.80
2019,04,25,01,06,5.70
2019,04,25,01,07,5.70
2019,04,25,01,08,5.70
2019,04,25,01,09,5.70
2019,04,25,01,10,5.60
2019,04,25,01,11,5.60
2019,04,25,01,12,5.60
2019,04,25,01,13,5.50
2019,04,25,01,14,5.50
2019,04,25,01,15,5.50
2019,04,25,01,16,5.60
2019,04,25,01,17,5.60
2019,04,25,01,18,5.60
2019,04,25,01,19,5.60
2019,04,25,01,20,5.70
2019,04,25,01,21,5.70
2019,04,25,01,22,5.70
2019,04,25,01,23,5.70
2019,04,25,01,24,5.70
2019,04,25,01,25,5.70
2019,04,25,01,26,5.70
2019,04,25,01,27,5.70
2019,04,25,01,28,5.70
2019,04,25,01,29,5.70
2019,04,25,01,30,5.70
2019,04,25,01,31,5.70
2019,04,25,01,32,5.70
2019,04,25,01,33,5.70
2019,04,25,01,34,5.60
2019,04,25,01,35,5.60
2019,04,25,01,36,5.60
2019,04,25,01,37,5.50
2019,04,25,01,38,5.40
2019,04,25,01,39,5.40
2019,04,25,01,40,5.40
2019,04,25,01,41,5.30
2019,04,25,01,42,5.30
2019,04,25,01,43,5.30
2019,04,25,01,44,5.30
2019,04,25,01,45,5.20
2019,04,25,01,46,5.20
2019,04,25,01,47,5.20
2019,04,25,01,48,5.20
2019,04,25,01,49,5.20
2019,04,25,01,50,5.20
2019,04,25,01,51,5.20
2019,04,25,01,52,5.20
2019,04,25,01,53,5.10
2019,04,25,01,54,5.20
2019,04,25,01,55,5.10
2019,04,25,01,56,5.10
2019,04,25,01,57,5.10
2019,04,25,01,58,5.10
2019,04,25,01,59,5.10
2019,04,25,02,00,5.10
2019,04,25,02,01,5.10
2019,04,25,02,02,5.10
2019,04,25,02,03,5.10
2019,04,25,02,04,5.10
2019,04,25,02,05,5.00
2019,04,25,02,06,5.00
2019,04,25,02,07,5.00
2019,04,25,02,08,5.00
2019,04,25,02,09,5.00
2019,04,25,02,10,5.00
2019,04,25,02,11,4.90
2019,04,25,02,12,4.90
2019,04,25,02,13,4.90
2019,04,25,02,14,4.90
2019,04,25,02,15,4.80
2019,04,25,02,16,4.80
2019,04,25,02,17,4.80
2019,04,25,02,18,4.80
2019,04,25,02,19,4.80
2019,04,25,02,20,4.80
2019,04,25,02,21,4.80
2019,04,25,02,22,4.80
2019,04,25,02,23,4.80
2019,04,25,02,24,4.80
2019,04,25,02,25,4.80
2019,04,25,02,26,4.80
2019,04,25,02,27,4.90
2019,04,25,02,28,4.90
2019,04,25,02,29,4.90
2019,04,25,02,30,4.90
2019,04,25,02,31,4.90
2019,04,25,02,32,4.90
2019,04,25,02,33,4.90
2019,04,25,02,34,4.90
2019,04,25,02,35,4.80
2019,04,25,02,36,4.80
2019,04,25,02,37,4.80
2019,04,25,02,38,4.80
2019,04,25,02,39,4.70
2019,04,25,02,40,4.70
2019,04,25,02,41,4.70
2019,04,25,02,42,4.80
2019,04,25,02,43,4.80
2019,04,25,02,44,4.80
2019,04,25,02,45,4.80
2019,04,25,02,46,4.90
2019,04,25,02,47,4.90
2019,04,25,02,48,4.90
2019,04,25,02,49,4.90
2019,04,25,02,50,4.90
2019,04,25,02,51,4.90
2019,04,25,02,52,4.90
2019,04,25,02,53,4.80
2019,04,25,02,54,4.80
2019,04,25,02,55,4.80
2019,04,25,02,56,4.80
2019,04,25,02,57,4.80
2019,04,25,02,58,4.80
2019,04,25,02,59,4.80
2019,04,25,03,00,4.80
2019,04,25,03,01,4.80
2019,04,25,03,02,4.80
2019,04,25,03,03,4.70
2019,04,25,03,04,4.70
2019,04,25,03,05,4.70
2019,04,25,03,06,4.70
2019,04,25,03,07,4.80
2019,04,25,03,08,4.80
2019,04,25,03,09,4.80
2019,04,25,03,10,4.80
2019,04,25,03,11,4.80
2019,04,25,03,12,4.80
2019,04,25,03,13,4.80
2019,04,25,03,14,4.80
2019,04,25,03,15,4.70
2019,04,25,03,16,4.70
2019,04,25,03,17,4.70
2019,04,25,03,18,4.70
2019,04,25,03,19,4.60
2019,04,25,03,20,4.60
2019,04,25,03,21,4.60
2019,04,25,03,22,4.50
2019,04,25,03,23,4.50
2019,04,25,03,24,4.50
2019,04,25,03,25,4.50
2019,04,25,03,26,4.50
2019,04,25,03,27,4.40
2019,04,25,03,28,4.40
2019,04,25,03,29,4.50
2019,04,25,03,30,4.50
2019,04,25,03,31,4.60
2019,04,25,03,32,4.60
2019,04,25,03,33,4.70
2019,04,25,03,34,4.70
2019,04,25,03,35,4.70
2019,04,25,03,36,4.70
2019,04,25,03,37,4.70
2019,04,25,03,38,4.80
2019,04,25,03,39,4.80
2019,04,25,03,40,4.80
2019,04,25,03,41,4.80
2019,04,25,03,42,4.70
2019,04,25,03,43,4.70
2019,04,25,03,44,4.70
2019,04,25,03,45,4.70
2019,04,25,03,46,4.70
2019,04,25,03,47,4.70
2019,04,25,03,48,4.60
2019,04,25,03,49,4.60
2019,04,25,03,50,4.60
2019,04,25,03,51,4.60
2019,04,25,03,52,4.50
2019,04,25,03,53,4.60
2019,04,25,03,54,4.50
2019,04,25,03,55,4.50
2019,04,25,03,56,4.50
2019,04,25,03,57,4.50
2019,04,25,03,58,4.40
2019,04,25,03,59,4.40
2019,04,25,04,00,4.40
2019,04,25,04,01,4.40
2019,04,25,04,02,4.40
2019,04,25,04,03,4.40
2019,04,25,04,04,4.40
2019,04,25,04,05,4.40
2019,04,25,04,06,4.40
2019,04,25,04,07,4.30
2019,04,25,04,08,4.30
2019,04,25,04,09,4.30
2019,04,25,04,10,4.30
2019,04,25,04,11,4.30
2019,04,25,04,12,4.20
2019,04,25,04,13,4.20
2019,04,25,04,14,4.20
2019,04,25,04,15,4.10
2019,04,25,04,16,4.10
2019,04,25,04,17,4.10
2019,04,25,04,18,4.10
2019,04,25,04,19,4.10
2019,04,25,04,20,4.10
2019,04,25,04,21,4.10
2019,04,25,04,22,4.10
2019,04,25,04,23,4.10
2019,04,25,04,24,4.10
2019,04,25,04,25,4.10
2019,04,25,04,26,4.10
2019,04,25,04,27,4.10
2019,04,25,04,28,4.10
2019,04,25,04,29,4.10
2019,04,25,04,30,4.10
2019,04,25,04,31,4.10
2019,04,25,04,32,4.10
2019,04,25,04,33,4.10
2019,04,25,04,34,4.00
2019,04,25,04,35,4.00
2019,04,25,04,36,4.00
2019,04,25,04,37,4.00
2019,04,25,04,38,4.00
2019,04,25,04,39,4.00
2019,04,25,04,40,4.00
2019,04,25,04,41,3.90
2019,04,25,04,42,3.90
2019,04,25,04,43,3.90
2019,04,25,04,44,3.90
2019,04,25,04,45,3.90
2019,04,25,04,46,3.80
2019,04,25,04,47,3.80
2019,04,25,04,48,3.80
2019,04,25,04,49,3.80
2019,04,25,04,50,3.80
2019,04,25,04,51,3.80
2019,04,25,04,52,3.80
2019,04,25,04,53,3.70
2019,04,25,04,54,3.70
2019,04,25,04,55,3.70
2019,04,25,04,56,3.70
2019,04,25,04,57,3.70
2019,04,25,04,58,3.70
2019,04,25,04,59,3.60
2019,04,25,05,00,3.60
2019,04,25,05,01,3.60
2019,04,25,05,02,3.60
2019,04,25,05,03,3.60
2019,04,25,05,04,3.60
2019,04,25,05,05,3.60
2019,04,25,05,06,3.50
2019,04,25,05,07,3.50
2019,04,25,05,08,3.50
2019,04,25,05,09,3.50
2019,04,25,05,10,3.50
2019,04,25,05,11,3.50
2019,04,25,05,12,3.50
2019,04,25,05,13,3.40
2019,04,25,05,14,3.40
2019,04,25,05,15,3.40
2019,04,25,05,16,3.40
2019,04,25,05,17,3.40
2019,04,25,05,18,3.40
2019,04,25,05,19,3.40
2019,04,25,05,20,3.40
2019,04,25,05,21,3.40
2019,04,25,05,22,3.40
2019,04,25,05,23,3.40
2019,04,25,05,24,3.30
2019,04,25,05,25,3.30
2019,04,25,05,26,3.40
2019,04,25,05,27,3.30
2019,04,25,05,28,3.30
2019,04,25,05,29,3.30
2019,04,25,05,30,3.30
2019,04,25,05,31,3.30
2019,04,25,05,32,3.30
2019,04,25,05,33,3.30
2019,04,25,05,34,3.30
2019,04,25,05,35,3.30
2019,04,25,05,36,3.30
2019,04,25,05,37,3.30
2019,04,25,05,38,3.30
2019,04,25,05,39,3.30
2019,04,25,05,40,3.30
2019,04,25,05,41,3.30
2019,04,25,05,42,3.30
2019,04,25,05,43,3.30
2019,04,25,05,44,3.30
2019,04,25,05,45,3.30
2019,04,25,05,46,3.30
2019,04,25,05,47,3.30
2019,04,25,05,48,3.30
2019,04,25,05,49,3.30
2019,04,25,05,50,3.30
2019,04,25,05,51,3.30
2019,04,25,05,52,3.30
2019,04,25,05,53,3.30
2019,04,25,05,54,3.20
2019,04,25,05,55,3.20
2019,04,25,05,56,3.20
2019,04,25,05,57,3.20
2019,04,25,05,58,3.20
2019,04,25,05,59,3.20
2019,04,25,06,00,3.20
2019,04,25,06,01,3.20
2019,04,25,06,02,3.20
2019,04,25,06,03,3.20
2019,04,25,06,04,3.20
2019,04,25,06,05,3.20
2019,04,25,06,06,3.20
2019,04,25,06,07,3.20
2019,04,25,06,08,3.20
2019,04,25,06,09,3.20
2019,04,25,06,10,3.20
2019,04,25,06,11,3.20
2019,04,25,06,12,3.20
2019,04,25,06,13,3.20
2019,04,25,06,14,3.20
2019,04,25,06,15,3.20
2019,04,25,06,16,3.20
2019,04,25,06,17,3.20
2019,04,25,06,18,3.20
2019,04,25,06,19,3.20
2019,04,25,06,20,3.20
2019,04,25,06,21,3.20
2019,04,25,06,22,3.20
2019,04,25,06,23,3.20
2019,04,25,06,24,3.20
2019,04,25,06,25,3.20
2019,04,25,06,26,3.20
2019,04,25,06,27,3.20
2019,04,25,06,28,3.20
2019,04,25,06,29,3.20
2019,04,25,06,30,3.10
2019,04,25,06,31,3.20
2019,04,25,06,32,3.20
2019,04,25,06,33,3.20
2019,04,25,06,34,3.20
2019,04,25,06,35,3.20
2019,04,25,06,36,3.20
2019,04,25,06,37,3.20
2019,04,25,06,38,3.20
2019,04,25,06,39,3.20
2019,04,25,06,40,3.20
2019,04,25,06,41,3.20
2019,04,25,06,42,3.30
2019,04,25,06,43,3.30
2019,04,25,06,44,3.30
2019,04,25,06,45,3.30
2019,04,25,06,46,3.30
2019,04,25,06,47,3.30
2019,04,25,06,48,3.30
2019,04,25,06,49,3.30
2019,04,25,06,50,3.30
2019,04,25,06,51,3.30
2019,04,25,06,52,3.40
2019,04,25,06,53,3.40
2019,04,25,06,54,3.40
2019,04,25,06,55,3.50
2019,04,25,06,56,3.50
2019,04,25,06,57,3.50
2019,04,25,06,58,3.50
2019,04,25,06,59,3.60
2019,04,25,07,00,3.60
2019,04,25,07,01,3.60
2019,04,25,07,02,3.60
2019,04,25,07,03,3.60
2019,04,25,07,04,3.70
2019,04,25,07,05,3.70
2019,04,25,07,06,3.80
2019,04,25,07,07,3.80
2019,04,25,07,08,3.80
2019,04,25,07,09,3.90
2019,04,25,07,10,3.90
2019,04,25,07,11,3.90
2019,04,25,07,12,3.90
2019,04,25,07,13,4.00
2019,04,25,07,14,4.00
2019,04,25,07,15,4.10
2019,04,25,07,16,4.10
2019,04,25,07,17,4.10
2019,04,25,07,18,4.20
2019,04,25,07,19,4.20
2019,04,25,07,20,4.20
2019,04,25,07,21,4.30
2019,04,25,07,22,4.30
2019,04,25,07,23,4.40
2019,04,25,07,24,4.40
2019,04,25,07,25,4.50
2019,04,25,07,26,4.50
2019,04,25,07,27,4.60
2019,04,25,07,28,4.60
2019,04,25,07,29,4.70
2019,04,25,07,30,4.80
2019,04,25,07,31,4.80
2019,04,25,07,32,4.90
2019,04,25,07,33,4.90
2019,04,25,07,34,5.00
2019,04,25,07,35,5.00
2019,04,25,07,36,5.10
2019,04,25,07,37,5.10
2019,04,25,07,38,5.20
2019,04,25,07,39,5.20
2019,04,25,07,40,5.30
2019,04,25,07,41,5.30
2019,04,25,07,42,5.30
2019,04,25,07,43,5.40
2019,04,25,07,44,5.50
2019,04,25,07,45,5.50
2019,04,25,07,46,5.60
2019,04,25,07,47,5.60
2019,04,25,07,48,5.70
2019,04,25,07,49,5.80
2019,04,25,07,50,5.80
2019,04,25,07,51,5.90
2019,04,25,07,52,5.90
2019,04,25,07,53,6.00
2019,04,25,07,54,6.00
2019,04,25,07,55,6.10
2019,04,25,07,56,6.10
2019,04,25,07,57,6.20
2019,04,25,07,58,6.30
2019,04,25,07,59,6.30
2019,04,25,08,00,6.30
2019,04,25,08,01,6.40
2019,04,25,08,02,6.40
2019,04,25,08,03,6.50
2019,04,25,08,04,6.60
2019,04,25,08,05,6.60
2019,04,25,08,06,6.70
2019,04,25,08,07,6.70
2019,04,25,08,08,6.80
2019,04,25,08,09,6.80
2019,04,25,08,10,6.80
2019,04,25,08,11,6.90
2019,04,25,08,12,6.90
2019,04,25,08,13,7.00
2019,04,25,08,14,7.00
2019,04,25,08,15,7.10
2019,04,25,08,16,7.10
2019,04,25,08,17,7.10
2019,04,25,08,18,7.20
2019,04,25,08,19,7.20
2019,04,25,08,20,7.20
2019,04,25,08,21,7.30
2019,04,25,08,22,7.30
2019,04,25,08,23,7.30
2019,04,25,08,24,7.30
2019,04,25,08,25,7.40
2019,04,25,08,26,7.40
2019,04,25,08,27,7.50
2019,04,25,08,28,7.50
2019,04,25,08,29,7.60
2019,04,25,08,30,7.60
2019,04,25,08,31,7.60
2019,04,25,08,32,7.70
2019,04,25,08,33,7.70
2019,04,25,08,34,7.70
2019,04,25,08,35,7.70
2019,04,25,08,36,7.80
2019,04,25,08,37,7.80
2019,04,25,08,38,7.80
2019,04,25,08,39,7.80
2019,04,25,08,40,7.90
2019,04,25,08,41,7.90
2019,04,25,08,42,7.90
2019,04,25,08,43,8.00
2019,04,25,08,44,8.00
2019,04,25,08,45,8.00
2019,04,25,08,46,8.10
2019,04,25,08,47,8.10
2019,04,25,08,48,8.10
2019,04,25,08,49,8.20
2019,04,25,08,50,8.20
2019,04,25,08,51,8.20
2019,04,25,08,52,8.20
2019,04,25,08,53,8.20
2019,04,25,08,54,8.30
2019,04,25,08,55,8.30
2019,04,25,08,56,8.30
2019,04,25,08,57,8.40
2019,04,25,08,58,8.40
2019,04,25,08,59,8.40
2019,04,25,09,00,8.50
2019,04,25,09,01,8.50
2019,04,25,09,02,8.50
2019,04,25,09,03,8.60
2019,04,25,09,04,8.60
2019,04,25,09,05,8.70
2019,04,25,09,06,8.70
2019,04,25,09,07,8.70
2019,04,25,09,08,8.80
2019,04,25,09,09,8.80
2019,04,25,09,10,8.80
2019,04,25,09,11,8.80
2019,04,25,09,12,8.80
2019,04,25,09,13,8.90
2019,04,25,09,14,8.90
2019,04,25,09,15,8.90
2019,04,25,09,16,8.90
2019,04,25,09,17,9.00
2019,04,25,09,18,9.00
2019,04,25,09,19,9.00
2019,04,25,09,20,9.00
2019,04,25,09,21,9.10
2019,04,25,09,22,9.10
2019,04,25,09,23,9.10
2019,04,25,09,24,9.20
2019,04,25,09,25,9.20
2019,04,25,09,26,9.20
2019,04,25,09,27,9.20
2019,04,25,09,28,9.20
2019,04,25,09,29,9.20
2019,04,25,09,30,9.20
2019,04,25,09,31,9.20
2019,04,25,09,32,9.20
2019,04,25,09,33,9.20
2019,04,25,09,34,9.20
2019,04,25,09,35,9.30
2019,04,25,09,36,9.30
2019,04,25,09,37,9.40
2019,04,25,09,38,9.40
2019,04,25,09,39,9.40
2019,04,25,09,40,9.50
2019,04,25,09,41,9.50
2019,04,25,09,42,9.60
2019,04,25,09,43,9.60
2019,04,25,09,44,9.60
2019,04,25,09,45,9.70
2019,04,25,09,46,9.70
2019,04,25,09,47,9.70
2019,04,25,09,48,9.80
2019,04,25,09,49,9.80
2019,04,25,09,50,9.80
2019,04,25,09,51,9.80
2019,04,25,09,52,9.90
2019,04,25,09,53,10.00
2019,04,25,09,54,10.10
2019,04,25,09,55,10.10
2019,04,25,09,56,10.20
2019,04,25,09,57,10.20
2019,04,25,09,58,10.20
2019,04,25,09,59,10.20
2019,04,25,10,00,10.30
2019,04,25,10,01,10.30
2019,04,25,10,02,10.40
2019,04,25,10,03,10.40
2019,04,25,10,04,10.50
2019,04,25,10,05,10.60
2019,04,25,10,06,10.60
2019,04,25,10,07,10.70
2019,04,25,10,08,10.70
2019,04,25,10,09,10.70
2019,04,25,10,10,10.80
2019,04,25,10,11,10.90
2019,04,25,10,12,10.90
2019,04,25,10,13,11.00
2019,04,25,10,14,11.00
2019,04,25,10,15,11.10
2019,04,25,10,16,11.10
2019,04,25,10,17,11.20
2019,04,25,10,18,11.20
2019,04,25,10,19,11.20
2019,04,25,10,20,11.10
2019,04,25,10,21,11.00
2019,04,25,10,22,10.90
2019,04,25,10,23,10.90
2019,04,25,10,24,10.80
2019,04,25,10,25,10.80
2019,04,25,10,26,10.80
2019,04,25,10,27,10.80
2019,04,25,10,28,10.90
2019,04,25,10,29,10.90
2019,04,25,10,30,11.00
2019,04,25,10,31,11.00
2019,04,25,10,32,11.10
2019,04,25,10,33,11.20
2019,04,25,10,34,11.30
2019,04,25,10,35,11.30
2019,04,25,10,36,11.40
2019,04,25,10,37,11.50
2019,04,25,10,38,11.60
2019,04,25,10,39,11.60
2019,04,25,10,40,11.70
2019,04,25,10,41,11.70
2019,04,25,10,42,11.70
2019,04,25,10,43,11.80
2019,04,25,10,44,11.90
2019,04,25,10,45,11.90
2019,04,25,10,46,11.90
2019,04,25,10,47,11.90
2019,04,25,10,48,11.90
2019,04,25,10,49,12.00
2019,04,25,10,50,12.00
2019,04,25,10,51,12.00
2019,04,25,10,52,11.90
2019,04,25,10,53,11.80
2019,04,25,10,54,11.80
2019,04,25,10,55,11.70
2019,04,25,10,56,11.70
2019,04,25,10,57,11.70
2019,04,25,10,58,11.70
2019,04,25,10,59,11.80
2019,04,25,11,00,11.80
2019,04,25,11,01,11.80
2019,04,25,11,02,11.80
2019,04,25,11,03,11.80
2019,04,25,11,04,11.80
2019,04,25,11,05,11.80
2019,04,25,11,06,11.90
2019,04,25,11,07,12.10
2019,04,25,11,08,12.20
2019,04,25,11,09,12.20
2019,04,25,11,10,12.30
2019,04,25,11,11,12.30
2019,04,25,11,12,12.40
2019,04,25,11,13,12.40
2019,04,25,11,14,12.40
2019,04,25,11,15,12.50
2019,04,25,11,16,12.50
2019,04,25,11,17,12.40
2019,04,25,11,18,12.30
2019,04,25,11,19,12.30
2019,04,25,11,20,12.30
2019,04,25,11,21,12.30
2019,04,25,11,22,12.30
2019,04,25,11,23,12.30
2019,04,25,11,24,12.40
2019,04,25,11,25,12.40
2019,04,25,11,26,12.50
2019,04,25,11,27,12.60
2019,04,25,11,28,12.60
2019,04,25,11,29,12.70
2019,04,25,11,30,12.70
2019,04,25,11,31,12.80
2019,04,25,11,32,12.80
2019,04,25,11,33,12.90
2019,04,25,11,34,13.00
2019,04,25,11,35,13.00
2019,04,25,11,36,13.10
2019,04,25,11,37,13.10
2019,04,25,11,38,13.20
2019,04,25,11,39,13.20
2019,04,25,11,40,13.20
2019,04,25,11,41,13.20
2019,04,25,11,42,13.10
2019,04,25,11,43,12.90
2019,04,25,11,44,12.80
2019,04,25,11,45,12.70
2019,04,25,11,46,12.70
2019,04,25,11,47,12.80
2019,04,25,11,48,12.80
2019,04,25,11,49,12.80
2019,04,25,11,50,12.80
2019,04,25,11,51,12.80
2019,04,25,11,52,12.80
2019,04,25,11,53,12.80
2019,04,25,11,54,12.80
2019,04,25,11,55,12.80
2019,04,25,11,56,12.80
2019,04,25,11,57,12.90
2019,04,25,11,58,12.90
2019,04,25,11,59,12.90
2019,04,25,12,00,12.90
2019,04,25,12,01,12.90
2019,04,25,12,02,12.80
2019,04,25,12,03,12.80
2019,04,25,12,04,12.80
2019,04,25,12,05,12.80
2019,04,25,12,06,12.90
2019,04,25,12,07,13.00
2019,04,25,12,08,13.00
2019,04,25,12,09,13.00
2019,04,25,12,10,13.00
2019,04,25,12,11,13.00
2019,04,25,12,12,13.00
2019,04,25,12,13,13.00
2019,04,25,12,14,13.00
2019,04,25,12,15,13.00
2019,04,25,12,16,13.10
2019,04,25,12,17,13.10
2019,04,25,12,18,13.10
2019,04,25,12,19,13.20
2019,04,25,12,20,13.20
2019,04,25,12,21,13.20
2019,04,25,12,22,13.30
2019,04,25,12,23,13.30
2019,04,25,12,24,13.30
2019,04,25,12,25,13.30
2019,04,25,12,26,13.30
2019,04,25,12,27,13.30
2019,04,25,12,28,13.40
2019,04,25,12,29,13.40
2019,04,25,12,30,13.40
2019,04,25,12,31,13.40
2019,04,25,12,32,13.40
2019,04,25,12,33,13.40
2019,04,25,12,34,13.40
2019,04,25,12,35,13.50
2019,04,25,12,36,13.60
2019,04,25,12,37,13.60
2019,04,25,12,38,13.70
2019,04,25,12,39,13.70
2019,04,25,12,40,13.70
2019,04,25,12,41,13.80
2019,04,25,12,42,13.80
2019,04,25,12,43,13.80
2019,04,25,12,44,13.80
2019,04,25,12,45,13.80
2019,04,25,12,46,13.90
2019,04,25,12,47,13.90
2019,04,25,12,48,14.00
2019,04,25,12,49,14.00
2019,04,25,12,50,13.90
2019,04,25,12,51,13.90
2019,04,25,12,52,13.90
2019,04,25,12,53,13.90
2019,04,25,12,54,13.90
2019,04,25,12,55,13.90
2019,04,25,12,56,13.90
2019,04,25,12,57,13.90
2019,04,25,12,58,13.90
2019,04,25,12,59,13.90
2019,04,25,13,00,13.90
2019,04,25,13,01,13.90
2019,04,25,13,02,13.90
2019,04,25,13,03,13.90
2019,04,25,13,04,14.00
2019,04,25,13,05,14.10
2019,04,25,13,06,14.00
2019,04,25,13,07,14.00
2019,04,25,13,08,13.90
2019,04,25,13,09,13.90
2019,04,25,13,10,13.90
2019,04,25,13,11,13.90
2019,04,25,13,12,14.00
2019,04,25,13,13,14.00
2019,04,25,13,14,14.10
2019,04,25,13,15,14.20
2019,04,25,13,16,14.30
2019,04,25,13,17,14.30
2019,04,25,13,18,14.30
2019,04,25,13,19,14.30
2019,04,25,13,20,14.30
2019,04,25,13,21,14.30
2019,04,25,13,22,14.30
2019,04,25,13,23,14.30
2019,04,25,13,24,14.30
2019,04,25,13,25,14.30
2019,04,25,13,26,14.40
2019,04,25,13,27,14.30
2019,04,25,13,28,14.30
2019,04,25,13,29,14.40
2019,04,25,13,30,14.50
2019,04,25,13,31,14.50
2019,04,25,13,32,14.50
2019,04,25,13,33,14.60
2019,04,25,13,34,14.60
2019,04,25,13,35,14.60
2019,04,25,13,36,14.70
2019,04,25,13,37,14.70
2019,04,25,13,38,14.80
2019,04,25,13,39,14.80
2019,04,25,13,40,14.90
2019,04,25,13,41,15.00
2019,04,25,13,42,15.10
2019,04,25,13,43,15.10
2019,04,25,13,44,15.10
2019,04,25,13,45,15.10
2019,04,25,13,46,15.10
2019,04,25,13,47,15.20
2019,04,25,13,48,15.20
2019,04,25,13,49,15.30
2019,04,25,13,50,15.20
2019,04,25,13,51,15.30
2019,04,25,13,52,15.50
2019,04,25,13,53,15.60
2019,04,25,13,54,15.80
2019,04,25,13,55,15.90
2019,04,25,13,56,16.00
2019,04,25,13,57,16.10
2019,04,25,13,58,16.10
2019,04,25,13,59,16.00
2019,04,25,14,00,15.90
2019,04,25,14,01,15.90
2019,04,25,14,02,15.90
2019,04,25,14,03,16.00
2019,04,25,14,04,16.00
2019,04,25,14,05,16.10
2019,04,25,14,06,16.20
2019,04,25,14,07,16.30
2019,04,25,14,08,16.40
2019,04,25,14,09,16.40
2019,04,25,14,10,16.40
2019,04,25,14,11,16.40
2019,04,25,14,12,16.40
2019,04,25,14,13,16.30
2019,04,25,14,14,16.40
2019,04,25,14,15,16.40
2019,04,25,14,16,16.40
2019,04,25,14,17,16.30
2019,04,25,14,18,16.30
2019,04,25,14,19,16.30
2019,04,25,14,20,16.40
2019,04,25,14,21,16.40
2019,04,25,14,22,16.40
2019,04,25,14,23,16.40
2019,04,25,14,24,16.40
2019,04,25,14,25,16.40
2019,04,25,14,26,16.40
2019,04,25,14,27,16.40
2019,04,25,14,28,16.50
2019,04,25,14,29,16.50
2019,04,25,14,30,16.60
2019,04,25,14,31,16.60
2019,04,25,14,32,16.70
2019,04,25,14,33,16.70
2019,04,25,14,34,16.80
2019,04,25,14,35,16.90
2019,04,25,14,36,17.00
2019,04,25,14,37,17.10
2019,04,25,14,38,17.10
2019,04,25,14,39,17.20
2019,04,25,14,40,17.10
2019,04,25,14,41,17.00
2019,04,25,14,42,16.80
2019,04,25,14,43,16.70
2019,04,25,14,44,16.70
2019,04,25,14,45,16.70
2019,04,25,14,46,16.70
2019,04,25,14,47,16.80
2019,04,25,14,48,16.80
2019,04,25,14,49,16.80
2019,04,25,14,50,16.80
2019,04,25,14,51,16.80
2019,04,25,14,52,16.80
2019,04,25,14,53,16.90
2019,04,25,14,54,16.90
2019,04,25,14,55,17.00
2019,04,25,14,56,17.10
2019,04,25,14,57,17.20
2019,04,25,14,58,17.20
2019,04,25,14,59,17.20
2019,04,25,15,00,17.20
2019,04,25,15,01,17.10
2019,04,25,15,02,17.10
2019,04,25,15,03,17.00
2019,04,25,15,04,16.90
2019,04,25,15,05,16.90
2019,04,25,15,06,16.90
2019,04,25,15,07,16.80
2019,04,25,15,08,16.80
2019,04,25,15,09,16.80
2019,04,25,15,10,16.80
2019,04,25,15,11,16.90
2019,04,25,15,12,17.00
2019,04,25,15,13,17.10
2019,04,25,15,14,17.10
2019,04,25,15,15,17.20
2019,04,25,15,16,17.30
2019,04,25,15,17,17.30
2019,04,25,15,18,17.30
2019,04,25,15,19,17.30
2019,04,25,15,20,17.30
2019,04,25,15,21,17.30
2019,04,25,15,22,17.30
2019,04,25,15,23,17.30
2019,04,25,15,24,17.30
2019,04,25,15,25,17.30
2019,04,25,15,26,17.30
2019,04,25,15,27,17.30
2019,04,25,15,28,17.20
2019,04,25,15,29,17.10
2019,04,25,15,30,17.10
2019,04,25,15,31,17.10
2019,04,25,15,32,17.10
2019,04,25,15,33,17.00
2019,04,25,15,34,17.10
2019,04,25,15,35,17.10
2019,04,25,15,36,17.10
2019,04,25,15,37,17.10
2019,04,25,15,38,17.10
2019,04,25,15,39,17.20
2019,04,25,15,40,17.00
2019,04,25,15,41,16.90
2019,04,25,15,42,17.00
2019,04,25,15,43,17.10
2019,04,25,15,44,17.20
2019,04,25,15,45,17.20
2019,04,25,15,46,17.20
2019,04,25,15,47,17.20
2019,04,25,15,48,17.20
2019,04,25,15,49,17.20
2019,04,25,15,50,17.20
2019,04,25,15,51,17.30
2019,04,25,15,52,17.30
2019,04,25,15,53,17.40
2019,04,25,15,54,17.40
2019,04,25,15,55,17.40
2019,04,25,15,56,17.50
2019,04,25,15,57,17.50
2019,04,25,15,58,17.50
2019,04,25,15,59,17.50
2019,04,25,16,00,17.40
2019,04,25,16,01,17.40
2019,04,25,16,02,17.40
2019,04,25,16,03,17.30
2019,04,25,16,04,17.20
2019,04,25,16,05,17.10
2019,04,25,16,06,17.10
2019,04,25,16,07,17.20
2019,04,25,16,08,17.30
2019,04,25,16,09,17.30
2019,04,25,16,10,17.40
2019,04,25,16,11,17.40
2019,04,25,16,12,17.30
2019,04,25,16,13,17.30
2019,04,25,16,14,17.30
2019,04,25,16,15,17.20
2019,04,25,16,16,17.20
2019,04,25,16,17,17.20
2019,04,25,16,18,17.20
2019,04,25,16,19,17.20
2019,04,25,16,20,17.30
2019,04,25,16,21,17.30
2019,04,25,16,22,17.30
2019,04,25,16,23,17.30
2019,04,25,16,24,17.30
2019,04,25,16,25,17.30
2019,04,25,16,26,17.30
2019,04,25,16,27,17.30
2019,04,25,16,28,17.20
2019,04,25,16,29,17.20
2019,04,25,16,30,17.20
2019,04,25,16,31,17.10
2019,04,25,16,32,17.10
2019,04,25,16,33,17.00
2019,04,25,16,34,16.90
2019,04,25,16,35,16.90
2019,04,25,16,36,16.80
2019,04,25,16,37,16.80
2019,04,25,16,38,16.80
2019,04,25,16,39,16.80
2019,04,25,16,40,16.90
2019,04,25,16,41,16.90
2019,04,25,16,42,16.90
2019,04,25,16,43,16.80
2019,04,25,16,44,16.70
2019,04,25,16,45,16.70
2019,04,25,16,46,16.70
2019,04,25,16,47,16.70
2019,04,25,16,48,16.80
2019,04,25,16,49,16.80
2019,04,25,16,50,16.90
2019,04,25,16,51,16.90
2019,04,25,16,52,16.90
2019,04,25,16,53,16.90
2019,04,25,16,54,16.90
2019,04,25,16,55,16.90
2019,04,25,16,56,16.90
2019,04,25,16,57,16.90
2019,04,25,16,58,16.90
2019,04,25,16,59,16.80
2019,04,25,17,00,16.80
2019,04,25,17,01,16.80
2019,04,25,17,02,16.90
2019,04,25,17,03,17.00
2019,04,25,17,04,17.00
2019,04,25,17,05,17.10
2019,04,25,17,06,17.10
2019,04,25,17,07,17.20
2019,04,25,17,08,17.30
2019,04,25,17,09,17.30
2019,04,25,17,10,17.30
2019,04,25,17,11,17.40
2019,04,25,17,12,17.40
2019,04,25,17,13,17.40
2019,04,25,17,14,17.40
2019,04,25,17,15,17.40
2019,04,25,17,16,17.30
2019,04,25,17,17,17.20
2019,04,25,17,18,17.20
2019,04,25,17,19,17.10
2019,04,25,17,20,17.10
2019,04,25,17,21,17.10
2019,04,25,17,22,17.00
2019,04,25,17,23,17.10
2019,04,25,17,24,17.10
2019,04,25,17,25,17.10
2019,04,25,17,26,17.10
2019,04,25,17,27,17.20
2019,04,25,17,28,17.20
2019,04,25,17,29,17.20
2019,04,25,17,30,17.10
2019,04,25,17,31,17.10
2019,04,25,17,32,17.10
2019,04,25,17,33,17.10
2019,04,25,17,34,17.10
2019,04,25,17,35,17.10
2019,04,25,17,36,17.20
2019,04,25,17,37,17.20
2019,04,25,17,38,17.20
2019,04,25,17,39,17.20
2019,04,25,17,40,17.20
2019,04,25,17,41,17.20
2019,04,25,17,42,17.20
2019,04,25,17,43,17.30
2019,04,25,17,44,17.30
2019,04,25,17,45,17.20